Weather History for KFSW - February, 2014

Change the Weather History Date:

Tuesday, February 18, 2014

  Actual Average Record
Temperature  
Mean Temperature 42 °F -  
Max Temperature 53 °F 39 °F 62 °F (1997)
Min Temperature 30 °F 23 °F -15 °F (1978)
Degree Days  
Heating Degree Days 24    
Moisture  
Dew Point 26 °F    
Average Humidity 53    
Maximum Humidity 75    
Minimum Humidity 34    
Precipitation  
Precipitation 0.00 in - - ()
Sea Level Pressure  
Sea Level Pressure 29.78 in    
Wind  
Wind Speed 10 mph (SSW)    
Max Wind Speed 20 mph    
Max Gust Speed 28 mph    
Visibility 10 miles    
Events      
Averages and records for this station are not official NWS values.
T = Trace of Precipitation, MM = Missing Value Source: NWS Daily Summary

Daily Weather History Graph

Daily Weather History Graph

Search for Another Location

Airport or City:

Trip Planner

Search our weather history database for the weather conditions in past years. The results will help you decide how hot, cold, wet, or windy it might be!

Date:

Astronomy

Feb. 18, 2014 Rise Set
Actual Time 6:55 AM CST 5:43 PM CST
Civil Twilight 6:27 AM CST 6:11 PM CST
Nautical Twilight 5:55 AM CST 6:43 PM CST
Astronomical Twilight 5:23 AM CST 7:15 PM CST
Moon 9:39 PM CST (2/18) 8:26 AM CST (2/18)
Length of Visible Light 11h 44m
Length of Day
10h 48m
Waning Gibbous, 87% of the Moon is Illuminated
Feb 18
Waning Gibbous
Feb 22
Last Quarter
Mar 1
New
Mar 8
First Quarter
Mar 16
Full

Hourly Weather History & Observations

Time (CST) Temp. Windchill Dew Point Humidity Pressure Visibility Wind Dir Wind Speed Gust Speed Precip Events Conditions
12:15 AM 35.6 °F 30.7 °F 23.0 °F 60% 29.96 in 10.0 mi SW 5.8 mph - N/A   Clear
12:35 AM 35.6 °F 31.7 °F 23.0 °F 60% 29.96 in 10.0 mi SW 4.6 mph - N/A   Clear
12:55 AM 33.8 °F 30.8 °F 23.0 °F 65% 29.95 in 10.0 mi SSW 3.5 mph - N/A   Clear
1:15 AM 33.8 °F 30.8 °F 23.0 °F 65% 29.95 in 10.0 mi SSW 3.5 mph - N/A   Clear
1:35 AM 33.8 °F 30.8 °F 24.8 °F 70% 29.95 in 10.0 mi SSW 3.5 mph - N/A   Clear
1:55 AM 33.8 °F 30.8 °F 24.8 °F 70% 29.94 in 10.0 mi South 3.5 mph - N/A   Clear
2:15 AM 33.8 °F 26.4 °F 24.8 °F 70% 29.95 in 10.0 mi SSW 9.2 mph - N/A   Clear
2:35 AM 33.8 °F 27.0 °F 24.8 °F 70% 29.94 in 10.0 mi SSW 8.1 mph - N/A   Clear
2:55 AM 32.0 °F 24.8 °F 23.0 °F 69% 29.93 in 10.0 mi South 8.1 mph - N/A   Clear
3:15 AM 32.0 °F 24.8 °F 23.0 °F 69% 29.93 in 10.0 mi South 8.1 mph - N/A   Clear
3:35 AM 32.0 °F 24.8 °F 24.8 °F 75% 29.92 in 10.0 mi South 8.1 mph - N/A   Clear
3:55 AM 32.0 °F 24.8 °F 23.0 °F 69% 29.91 in 10.0 mi South 8.1 mph - N/A   Clear
4:15 AM 32.0 °F 23.6 °F 21.2 °F 64% 29.90 in 10.0 mi South 10.4 mph - N/A   Clear
4:35 AM 32.0 °F 23.6 °F 21.2 °F 64% 29.89 in 10.0 mi South 10.4 mph - N/A   Clear
4:55 AM 32.0 °F 23.6 °F 21.2 °F 64% 29.89 in 10.0 mi South 10.4 mph - N/A   Clear
5:15 AM 30.2 °F 21.3 °F 21.2 °F 69% 29.88 in 10.0 mi South 10.4 mph - N/A   Clear
5:35 AM 30.2 °F 21.3 °F 19.4 °F 64% 29.88 in 10.0 mi South 10.4 mph - N/A   Clear
5:55 AM 32.0 °F 22.5 °F 19.4 °F 60% 29.86 in 10.0 mi South 12.7 mph - N/A   Clear
6:15 AM 32.0 °F 22.5 °F 19.4 °F 60% 29.85 in 10.0 mi South 12.7 mph - N/A   Clear
6:35 AM 33.8 °F 24.3 °F 19.4 °F 56% 29.85 in 10.0 mi South 13.8 mph - N/A   Clear
6:55 AM 35.6 °F 26.6 °F 19.4 °F 52% 29.84 in 10.0 mi South 13.8 mph - N/A   Clear
7:15 AM 35.6 °F 26.2 °F 19.4 °F 52% 29.83 in 10.0 mi South 15.0 mph - N/A   Clear
7:35 AM 37.4 °F 28.5 °F 19.4 °F 48% 29.83 in 10.0 mi South 15.0 mph - N/A   Clear
7:55 AM 39.2 °F 30.5 °F 19.4 °F 45% 29.83 in 10.0 mi SSW 16.1 mph 24.2 mph N/A   Clear
8:15 AM 39.2 °F 30.2 °F 21.2 °F 49% 29.82 in 10.0 mi SSW 17.3 mph 20.7 mph N/A   Clear
8:35 AM 42.8 °F 34.8 °F 21.2 °F 42% 29.82 in 10.0 mi SSW 17.3 mph 23.0 mph N/A   Clear
8:55 AM 42.8 °F 34.5 °F 21.2 °F 42% 29.79 in 10.0 mi South 18.4 mph 24.2 mph N/A   Clear
9:15 AM 42.8 °F 35.1 °F 21.2 °F 42% 29.80 in 10.0 mi South 16.1 mph - N/A   Clear
9:35 AM 44.6 °F 37.8 °F 21.2 °F 39% 29.82 in 10.0 mi SW 15.0 mph 23.0 mph N/A   Clear
9:55 AM 44.6 °F 37.8 °F 21.2 °F 39% 29.81 in 10.0 mi SSW 15.0 mph - N/A   Clear
10:15 AM 44.6 °F 37.4 °F 21.2 °F 39% 29.79 in 10.0 mi South 16.1 mph - N/A   Clear
10:35 AM 46.4 °F 40.1 °F 21.2 °F 37% 29.78 in 10.0 mi South 15.0 mph 21.9 mph N/A   Clear
10:55 AM 46.4 °F 39.8 °F 21.2 °F 37% 29.76 in 10.0 mi South 16.1 mph 21.9 mph N/A   Clear
11:15 AM 46.4 °F 39.0 °F 21.2 °F 37% 29.73 in 10.0 mi South 19.6 mph 26.5 mph N/A   Clear
11:35 AM 48.2 °F - 21.2 °F 34% 29.72 in 10.0 mi South 18.4 mph - N/A   Clear
11:55 AM 48.2 °F - 21.2 °F 34% 29.70 in 10.0 mi South 15.0 mph 19.6 mph N/A   Clear
12:15 PM - - - N/A% 29.69 in - South 12.7 mph - N/A   Unknown
12:35 PM 48.2 °F - 26.6 °F 43% 29.68 in 10.0 mi SSW 19.6 mph 25.3 mph N/A   Clear
12:55 PM 48.2 °F - 26.6 °F 43% 29.68 in 10.0 mi SSW 19.6 mph 27.6 mph N/A   Clear
1:15 PM 48.2 °F - 28.4 °F 46% 29.68 in 10.0 mi SSW 17.3 mph 25.3 mph N/A   Clear
1:35 PM 48.2 °F - 28.4 °F 46% 29.68 in 10.0 mi South 13.8 mph 20.7 mph N/A   Clear
1:55 PM 51.8 °F - 28.4 °F 41% 29.69 in 10.0 mi SSW 12.7 mph 17.3 mph N/A   Clear
2:15 PM 51.8 °F - 26.6 °F 38% 29.68 in 10.0 mi SW 18.4 mph 24.2 mph N/A   Clear
2:35 PM 51.8 °F - 26.6 °F 38% 29.66 in 10.0 mi SW 17.3 mph 26.5 mph N/A   Clear
2:55 PM 53.6 °F - 26.6 °F 35% 29.65 in 10.0 mi SSW 16.1 mph 20.7 mph N/A   Clear
3:15 PM 51.8 °F - 28.4 °F 41% 29.65 in 10.0 mi SSW 17.3 mph 23.0 mph N/A   Clear
3:35 PM 51.8 °F - 28.4 °F 41% 29.65 in 10.0 mi SSW 17.3 mph 24.2 mph N/A   Clear
3:55 PM 51.8 °F - 28.4 °F 41% 29.66 in 10.0 mi SW 15.0 mph 21.9 mph N/A   Clear
4:15 PM 53.6 °F - 28.4 °F 38% 29.67 in 10.0 mi SW 11.5 mph 17.3 mph N/A   Clear
4:35 PM 53.6 °F - 28.4 °F 38% 29.68 in 10.0 mi WSW 13.8 mph 18.4 mph N/A   Clear
4:55 PM 53.6 °F - 30.2 °F 41% 29.68 in 10.0 mi WSW 10.4 mph - N/A   Clear
5:15 PM 51.8 °F - 30.2 °F 44% 29.68 in 10.0 mi SW 9.2 mph - N/A   Clear
5:35 PM 50.0 °F - 30.2 °F 47% 29.68 in 10.0 mi SW 9.2 mph - N/A   Clear
5:55 PM 48.2 °F - 30.2 °F 50% 29.68 in 10.0 mi SW 6.9 mph - N/A   Clear
6:15 PM 48.2 °F - 30.2 °F 50% 29.69 in 10.0 mi SW 8.1 mph - N/A   Clear
6:35 PM 46.4 °F 42.9 °F 30.2 °F 53% 29.70 in 10.0 mi SW 6.9 mph - N/A   Clear
6:55 PM 48.2 °F - 30.2 °F 50% 29.70 in 10.0 mi SW 6.9 mph - N/A   Clear
7:15 PM 46.4 °F 43.5 °F 30.2 °F 53% 29.71 in 10.0 mi SW 5.8 mph - N/A   Clear
7:35 PM 46.4 °F 43.5 °F 30.2 °F 53% 29.71 in 10.0 mi SW 5.8 mph - N/A   Clear
7:55 PM 46.4 °F 43.5 °F 32.0 °F 57% 29.72 in 10.0 mi SW 5.8 mph - N/A   Clear
8:15 PM 44.6 °F 42.2 °F 30.2 °F 57% 29.72 in 10.0 mi SW 4.6 mph - N/A   Clear
8:35 PM 46.4 °F 43.5 °F 32.0 °F 57% 29.72 in 10.0 mi SW 5.8 mph - N/A   Clear
8:55 PM 46.4 °F 44.3 °F 32.0 °F 57% 29.73 in 10.0 mi WSW 4.6 mph - N/A   Clear
9:15 PM 44.6 °F 40.7 °F 32.0 °F 61% 29.74 in 10.0 mi West 6.9 mph - N/A   Clear
9:35 PM 44.6 °F 38.4 °F 32.0 °F 61% 29.75 in 10.0 mi West 12.7 mph - N/A   Clear
9:55 PM 44.6 °F 36.6 °F 33.8 °F 66% 29.76 in 10.0 mi WNW 19.6 mph 25.3 mph N/A   Clear
10:15 PM 42.8 °F 34.5 °F 33.8 °F 70% 29.77 in 10.0 mi NW 18.4 mph 23.0 mph N/A   Clear
10:35 PM 41.0 °F 33.1 °F 32.0 °F 70% 29.78 in 10.0 mi NW 15.0 mph - N/A   Clear
10:55 PM 39.2 °F 31.6 °F 32.0 °F 75% 29.77 in 10.0 mi NW 12.7 mph 19.6 mph N/A   Clear
11:15 PM 39.2 °F 32.0 °F 30.2 °F 70% 29.78 in 10.0 mi WNW 11.5 mph - N/A   Clear
11:55 PM 39.2 °F 32.5 °F 30.2 °F 70% 29.80 in 10.0 mi West 10.4 mph - N/A   Clear